SCP
0 0 0 0 0 0 0 0 0 0 0 0 0 0 0 0 0 0 0 0 0 0 0 0 0 0 0 0 0 0 1 1 1 1 1 0 0 -0 0 0 0 0 0 0
0 0 0 0 0 0 0 0 0 0 0 0 0 0 0 0 0 0 0 0 0 0 0 0 0 0 1 0 0 0 0 1 1 1 1 1 0 0 0 -0 0 0 0 0
0 0 0 0 0 0 0 0 0 0 0 0 0 0 0 0 0 0 0 0 0 0 0 0 0 1 1 1 1 1 1 1 1 1 1 1 1 1 0 0 0 0 0 0
0 0 0 0 0 0 0 0 0 0 0 0 0 0 0 0 0 0 0 0 0 0 0 0 0 1 1 1 1 1 1 2 1 1 1 1 1 1 1 1 0 1 0 0
0 0 0 0 0 0 0 0 0 0 0 0 0 0 0 0 0 0 0 0 0 0 0 0 1 1 1 1 1 1 1 2 2 1 1 1 1 1 1 1 1 2 1 0
0 0 0 0 0 0 0 0 0 0 0 0 0 0 0 0 0 0 0 0 0 0 0 0 0 0 1 1 2 2 2 2 2 1 1 1 1 1 2 2 1 1 1 1
0 0 0 0 0 0 0 0 0 0 0 0 0 0 0 0 0 0 0 0 0 0 0 0 0 0 0 1 2 3 3 2 3 2 1 1 1 1 1 2 2 2 2 2
0 0 0 0 0 0 0 0 0 0 0 0 0 0 0 0 0 0 0 0 0 0 0 0 0 0 0 0 0 1 2 2 3 3 3 2 1 2 1 1 2 3 2 5
0 0 0 0 0 0 0 0 0 0 0 0 0 0 0 0 0 0 0 0 0 0 0 0 0 0 0 0 0 0 0 0 1 2 4 3 3 2 3 3 3 5 3 2
0 0 0 0 0 0 0 0 0 0 0 0 0 0 0 0 0 0 0 0 0 0 0 0 0 0 0 0 0 0 0 0 0 0 1 2 3 2 2 3 2 2 2 1
0 0 0 0 0 0 0 0 0 0 0 0 0 0 0 0 0 0 0 0 0 0 0 0 0 0 0 0 0 0 0 0 0 0 0 1 2 2 2 2 2 2 2 1
0 0 0 0 0 0 0 0 0 0 0 0 0 0 0 0 0 0 0 0 0 0 0 0 0 0 0 0 0 0 0 0 0 0 0 0 1 1 1 1 1 2 1 1
0 0 0 0 0 0 0 0 0 0 0 0 0 0 0 0 0 0 0 0 0 0 0 0 0 0 0 0 0 0 0 0 0 0 0 0 0 0 1 2 1 1 1 1
0 0 0 0 0 0 0 0 0 0 0 0 0 0 0 0 0 0 0 0 0 0 0 0 0 0 0 0 0 0 0 0 0 0 0 0 0 0 0 0 0 0 0 0
0 0 0 0 0 0 0 0 0 0 0 0 0 0 0 0 0 0 0 0 0 0 0 0 0 0 0 0 0 0 0 0 0 0 0 0 -0 0 0 0 1 1 0 0
0 0 0 0 0 0 0 0 0 0 0 0 0 0 0 0 0 0 0 0 0 0 0 0 0 0 0 0 0 0 0 0 0 0 0 0 0 0 0 0 0 0 1 0
0 0 0 0 0 0 0 0 0 0 0 0 0 0 0 0 0 0 0 0 0 0 0 0 0 0 0 0 0 0 0 0 0 0 0 0 0 0 0 0 0 0 0 0
0 0 0 0 0 0 0 0 0 0 0 0 0 0 0 0 0 0 0 0 0 0 0 0 0 0 0 0 0 0 0 0 0 0 0 0 0 0 0 0 0 0 0 0
0 0 0 0 0 0 -0 0 0 0 0 0 0 0 0 0 0 0 0 0 0 0 0 0 0 0 0 0 0 0 0 0 0 0 0 0 0 0 0 0 -0 -0 -0 0
0 0 -0 0 0 0 0 0 0 0 0 0 0 0 0 0 0 0 0 0 0 0 0 0 0 0 0 0 0 0 0 0 0 0 0 0 0 0 0 0 0 -0 -0 -0
0 0 0 -0 0 0 0 0 0 0 0 0 0 0 0 0 0 0 0 0 0 0 0 0 0 0 0 0 0 0 0 0 0 0 0 0 0 0 0 0 0 0 -0 0
0 0 0 0 0 0 0 0 0 0 0 0 0 0 0 0 0 0 0 0 0 0 0 0 0 0 0 0 0 0 0 0 0 0 0 0 0 0 0 0 0 0 0 0
0 0 0 0 0 0 0 0 0 0 0 0 0 0 0 0 0 0 0 0 0 0 0 0 0 0 0 0 0 0 0 0 0 0 0 0 0 0 0 1 0 0 0 0
0 0 0 0 0 0 0 0 0 0 0 0 0 0 0 0 0 0 0 0 0 0 0 0 0 0 0 0 0 0 0 0 0 0 0 0 0 0 1 1 0 0 0 0
0 0 0 0 0 0 0 0 0 0 0 0 0 0 0 0 0 0 0 0 0 0 0 0 0 0 0 0 0 0 0 0 0 0 0 0 0 1 1 1 1 0 0 0
0 0 0 0 0 0 0 0 0 0 0 0 0 0 0 0 0 0 0 0 0 0 0 0 0 0 0 0 0 0 0 0 0 0 0 0 0 1 1 1 0 0 0 0
Wind_Speed_500mb
34 23 28 32 29 27 12 17 17 13 6 15 27 26 23 24 27 31 16 5 6 14 16 21 24 23 20 16 28 35 40 49 56 60 61 57 64 59 50 51 58 67 58 51
18 34 31 15 16 19 21 24 24 13 14 19 16 24 24 21 10 3 2 7 14 20 24 26 28 26 27 17 17 30 37 44 53 56 55 57 56 51 57 70 52 45 59 55
36 4 15 23 23 27 25 25 20 20 15 20 17 27 23 17 19 14 13 13 16 23 29 31 32 30 29 28 23 22 34 39 47 52 52 61 70 72 70 71 74 67 57 57
35 34 13 21 29 27 30 25 25 20 19 22 26 22 29 30 19 12 14 16 20 24 27 31 31 32 32 30 29 25 25 35 38 44 49 54 56 71 75 70 60 57 55 61
28 28 29 26 26 24 28 18 26 25 24 26 26 18 16 25 22 9 15 20 23 26 29 33 35 33 35 33 31 24 14 21 29 34 42 42 49 46 52 62 67 66 58 56
31 8 5 11 1 16 8 17 22 22 24 30 34 25 24 24 15 9 14 20 23 26 29 35 37 37 39 37 36 28 17 11 16 23 31 37 40 37 40 42 35 39 45 51
30 16 6 4 20 16 22 23 19 24 25 29 31 32 9 14 17 13 14 17 20 22 27 34 39 43 47 48 43 38 33 17 7 14 22 25 32 33 37 42 39 37 33 35
31 21 10 6 10 17 26 27 25 30 26 26 16 19 13 16 17 18 16 15 18 23 25 29 36 39 40 46 47 44 39 31 26 17 15 20 24 25 27 36 37 39 34 44
11 12 7 8 12 6 16 22 13 20 18 20 12 14 13 13 15 14 15 13 16 19 19 24 32 37 37 38 40 41 41 39 35 26 19 19 24 27 28 33 40 50 55 52
5 7 9 4 7 9 6 5 8 8 14 26 23 17 5 25 18 14 10 7 12 14 15 21 28 32 32 33 34 36 36 37 37 34 30 24 15 21 31 39 38 50 44 45
11 10 13 9 17 10 12 14 9 8 15 12 14 4 13 12 11 1 6 12 15 15 16 19 22 25 29 32 33 35 33 30 32 33 33 32 23 18 15 23 29 33 36 36
4 7 20 26 15 14 21 24 28 21 30 22 25 10 9 12 9 7 13 13 19 19 19 21 25 28 28 29 33 31 31 30 29 29 31 32 29 22 17 17 22 33 36 46
2 7 14 18 16 15 20 19 25 31 27 35 22 4 14 11 7 7 8 11 14 18 24 25 26 27 29 30 28 25 27 28 28 28 27 28 29 27 22 14 18 24 39 42
5 13 18 20 14 12 8 14 17 19 22 30 33 16 17 14 4 3 3 8 12 14 19 23 27 29 31 30 28 23 22 24 25 26 25 24 25 26 23 25 21 25 29 30
7 22 13 20 14 16 19 19 19 22 22 20 18 14 12 14 5 5 6 10 16 20 21 21 23 26 30 31 31 28 27 27 27 29 24 21 17 19 22 21 20 21 23 28
6 15 12 23 9 17 22 24 25 26 25 24 22 26 22 5 12 13 12 14 21 25 25 27 31 33 32 33 35 35 34 32 30 28 23 21 20 16 19 19 18 18 18 20
13 16 13 23 3 19 27 30 34 33 26 19 22 6 8 10 11 15 21 25 29 30 29 35 39 38 37 37 35 37 37 36 32 28 24 23 20 19 14 17 18 19 19 20
14 19 14 16 12 22 3 7 15 20 17 14 12 8 2 8 18 28 30 22 22 30 38 41 40 40 40 40 41 40 39 38 36 33 28 25 27 23 17 15 17 21 22 23
21 19 7 8 17 22 31 9 8 12 15 12 15 5 9 10 25 32 7 15 30 41 43 45 42 43 46 46 43 42 43 43 40 39 34 30 28 29 22 16 15 18 23 25
26 22 15 14 9 7 12 7 1 3 20 14 3 3 7 19 19 17 35 37 41 46 49 50 52 52 49 47 45 46 45 44 45 41 39 36 32 31 29 22 17 19 22 23
19 21 23 19 10 14 8 8 4 14 6 11 5 14 21 21 28 40 44 45 48 49 51 51 51 46 50 50 45 45 45 46 44 45 43 40 35 33 35 28 20 19 21 25
13 14 13 19 11 16 9 12 13 9 3 9 20 23 25 28 35 40 45 48 54 52 49 44 46 45 40 38 39 41 43 43 45 45 46 42 37 34 37 32 24 22 21 25
8 7 5 12 7 4 10 6 2 7 18 25 26 24 25 32 40 44 45 47 45 48 42 35 33 34 36 35 36 45 51 44 44 45 44 44 39 37 40 33 27 20 21 18
10 8 8 6 11 9 16 17 18 21 21 23 26 31 34 36 39 43 49 44 41 38 38 37 35 36 42 38 39 39 41 40 42 44 43 43 43 40 37 33 28 21 16 16
18 1 13 17 23 21 20 11 10 15 23 29 32 29 29 29 39 41 43 40 39 41 42 40 42 42 44 43 43 43 43 36 40 40 39 41 43 39 37 36 30 25 24 21
21 17 16 11 11 7 7 11 19 27 32 32 30 34 31 31 38 42 39 37 40 44 44 45 41 42 42 40 42 43 35 32 34 34 34 36 40 40 24 25 23 21 19 19
Wind_Direction_500mb
200 218 219 218 223 265 261 259 254 235 237 252 247 253 245 228 225 232 214 218 335 348 4 1 2 3 342 264 237 232 234 233 229 232 231 229 215 211 209 222 254 239 240 239
181 228 235 232 227 233 233 237 240 255 230 222 225 242 234 222 191 139 187 40 359 346 352 358 356 353 357 341 255 242 236 236 236 233 231 227 227 226 223 213 243 245 242 242
226 150 232 219 209 222 228 236 230 255 163 236 257 240 213 137 145 115 66 40 16 -0 351 355 356 356 350 345 327 262 243 231 235 230 235 234 229 229 226 231 244 247 246 244
236 248 222 217 224 219 237 213 242 225 225 244 196 259 184 163 147 93 49 33 20 13 9 5 4 2 357 344 337 313 251 240 233 232 229 236 231 234 235 239 249 253 248 243
222 226 220 228 236 226 252 224 222 233 242 257 203 252 197 154 166 71 54 49 41 33 30 25 19 13 4 3 356 350 303 246 236 234 228 235 237 240 241 242 247 252 251 245
248 137 263 291 327 246 251 225 236 241 246 237 238 213 238 182 112 107 81 63 53 45 38 36 34 26 21 15 15 9 3 306 269 248 244 235 236 238 233 236 239 231 243 240
201 183 156 313 238 208 219 225 227 221 226 242 239 223 239 87 95 99 95 80 60 46 38 35 33 31 27 25 24 24 20 1 333 276 253 252 242 241 237 230 238 228 229 217
221 184 228 30 264 291 219 242 247 254 246 235 146 218 114 114 118 110 98 77 60 47 47 42 29 24 25 26 28 28 26 23 8 339 283 264 251 245 245 235 225 226 220 209
247 196 141 69 40 267 184 230 352 289 276 279 217 117 147 151 147 150 126 83 56 44 46 28 20 19 21 23 21 23 24 22 20 12 344 295 269 250 242 232 235 220 224 242
51 251 204 118 235 90 295 72 222 229 270 262 259 255 210 174 152 138 119 66 38 26 23 20 18 14 13 12 12 11 14 15 16 16 4 347 318 275 266 255 249 249 247 245
301 267 179 211 211 248 180 196 229 267 229 245 263 259 13 125 100 207 41 14 1 336 335 342 350 356 356 358 355 353 357 6 7 2 360 5 343 320 289 260 250 236 232 218
32 291 263 254 28 285 264 269 278 249 231 239 259 243 131 121 109 66 61 40 31 15 358 345 330 328 329 331 340 350 352 350 354 358 357 357 358 349 324 286 238 221 230 231
156 217 250 213 204 206 245 236 242 257 273 257 243 232 142 131 117 70 32 22 18 8 6 4 356 346 336 334 325 333 338 337 340 346 351 354 355 358 343 301 286 240 235 251
298 275 278 287 2 325 267 237 232 238 244 253 249 224 220 184 276 306 355 352 350 350 356 355 350 345 341 332 326 322 318 322 327 329 335 346 354 352 352 347 319 261 249 243
267 259 250 268 289 279 277 263 235 239 260 269 294 293 266 304 299 269 305 321 326 328 326 331 331 331 331 327 322 316 306 314 315 322 316 325 347 352 349 349 343 327 291 259
211 262 285 276 245 268 272 263 255 260 258 260 264 271 271 65 254 263 282 301 310 315 314 316 319 318 317 318 319 313 311 304 305 311 302 301 316 335 341 342 342 338 326 295
256 263 249 271 172 282 269 262 255 246 241 256 250 12 101 212 263 292 299 304 308 317 317 315 312 309 305 305 305 304 301 301 297 299 296 286 290 303 329 332 332 328 322 317
270 250 274 269 272 273 22 348 289 240 220 221 248 246 305 309 300 291 288 306 319 320 315 312 308 304 303 300 296 294 292 289 289 288 288 277 275 284 301 318 324 335 330 312
224 258 257 252 269 273 280 191 216 203 201 217 258 236 266 312 313 294 58 326 316 312 308 306 303 302 299 296 295 292 287 282 280 278 277 274 268 271 279 288 305 331 336 325
221 232 247 263 238 264 51 83 172 256 257 104 235 145 296 313 292 298 348 322 313 308 306 304 300 297 294 293 292 289 287 282 275 270 270 268 264 259 264 269 285 316 331 324
183 205 223 236 256 289 53 132 142 245 58 117 108 309 302 293 302 304 309 309 309 306 304 303 297 293 292 293 290 286 285 282 280 271 268 268 266 259 253 255 268 298 318 322
186 186 203 224 229 255 117 161 248 70 79 305 300 297 296 293 298 301 304 307 309 308 305 300 296 292 292 293 292 289 287 285 282 278 269 265 264 256 250 247 260 284 304 318
254 257 287 192 220 75 195 281 181 298 300 300 293 285 285 291 294 307 306 309 308 312 309 306 299 293 292 296 296 291 289 284 281 278 272 264 260 253 247 239 249 270 291 310
209 240 243 279 231 280 247 245 255 287 291 300 290 282 288 290 295 302 307 305 310 313 310 306 301 296 297 299 297 302 293 290 281 276 271 262 255 251 246 234 243 250 273 292
291 290 251 268 265 265 256 284 272 289 292 294 293 286 289 292 293 297 301 302 305 308 307 299 295 291 292 296 298 300 299 291 287 275 267 261 249 245 242 229 226 240 262 290
244 249 244 250 14 279 285 318 299 294 295 301 297 296 289 285 293 298 296 299 304 304 303 299 292 288 293 293 298 304 305 290 284 281 273 259 248 235 222 224 248 241 259 283
Wind_Speed_850mb
34 23 28 32 29 27 12 17 17 13 6 15 27 26 23 24 27 31 16 5 6 14 16 21 24 23 20 16 28 35 40 49 56 60 61 57 64 59 50 51 58 67 58 51
18 34 31 15 16 19 21 24 24 13 14 19 16 24 24 21 10 3 2 7 14 20 24 26 28 26 27 17 17 30 37 44 53 56 55 57 56 51 57 70 52 45 59 55
36 4 15 23 23 27 25 25 20 20 15 20 17 27 23 17 19 14 13 13 16 23 29 31 32 30 29 28 23 22 34 39 47 52 52 61 70 72 70 71 74 67 57 57
35 34 13 21 29 27 30 25 25 20 19 22 26 22 29 30 19 12 14 16 20 24 27 31 31 32 32 30 29 25 25 35 38 44 49 54 56 71 75 70 60 57 55 61
28 28 29 26 26 24 28 18 26 25 24 26 26 18 16 25 22 9 15 20 23 26 29 33 35 33 35 33 31 24 14 21 29 34 42 42 49 46 52 62 67 66 58 56
31 8 5 11 1 16 8 17 22 22 24 30 34 25 24 24 15 9 14 20 23 26 29 35 37 37 39 37 36 28 17 11 16 23 31 37 40 37 40 42 35 39 45 51
30 16 6 4 20 16 22 23 19 24 25 29 31 32 9 14 17 13 14 17 20 22 27 34 39 43 47 48 43 38 33 17 7 14 22 25 32 33 37 42 39 37 33 35
31 21 10 6 10 17 26 27 25 30 26 26 16 19 13 16 17 18 16 15 18 23 25 29 36 39 40 46 47 44 39 31 26 17 15 20 24 25 27 36 37 39 34 44
11 12 7 8 12 6 16 22 13 20 18 20 12 14 13 13 15 14 15 13 16 19 19 24 32 37 37 38 40 41 41 39 35 26 19 19 24 27 28 33 40 50 55 52
5 7 9 4 7 9 6 5 8 8 14 26 23 17 5 25 18 14 10 7 12 14 15 21 28 32 32 33 34 36 36 37 37 34 30 24 15 21 31 39 38 50 44 45
11 10 13 9 17 10 12 14 9 8 15 12 14 4 13 12 11 1 6 12 15 15 16 19 22 25 29 32 33 35 33 30 32 33 33 32 23 18 15 23 29 33 36 36
4 7 20 26 15 14 21 24 28 21 30 22 25 10 9 12 9 7 13 13 19 19 19 21 25 28 28 29 33 31 31 30 29 29 31 32 29 22 17 17 22 33 36 46
2 7 14 18 16 15 20 19 25 31 27 35 22 4 14 11 7 7 8 11 14 18 24 25 26 27 29 30 28 25 27 28 28 28 27 28 29 27 22 14 18 24 39 42
5 13 18 20 14 12 8 14 17 19 22 30 33 16 17 14 4 3 3 8 12 14 19 23 27 29 31 30 28 23 22 24 25 26 25 24 25 26 23 25 21 25 29 30
7 22 13 20 14 16 19 19 19 22 22 20 18 14 12 14 5 5 6 10 16 20 21 21 23 26 30 31 31 28 27 27 27 29 24 21 17 19 22 21 20 21 23 28
6 15 12 23 9 17 22 24 25 26 25 24 22 26 22 5 12 13 12 14 21 25 25 27 31 33 32 33 35 35 34 32 30 28 23 21 20 16 19 19 18 18 18 20
13 16 13 23 3 19 27 30 34 33 26 19 22 6 8 10 11 15 21 25 29 30 29 35 39 38 37 37 35 37 37 36 32 28 24 23 20 19 14 17 18 19 19 20
14 19 14 16 12 22 3 7 15 20 17 14 12 8 2 8 18 28 30 22 22 30 38 41 40 40 40 40 41 40 39 38 36 33 28 25 27 23 17 15 17 21 22 23
21 19 7 8 17 22 31 9 8 12 15 12 15 5 9 10 25 32 7 15 30 41 43 45 42 43 46 46 43 42 43 43 40 39 34 30 28 29 22 16 15 18 23 25
26 22 15 14 9 7 12 7 1 3 20 14 3 3 7 19 19 17 35 37 41 46 49 50 52 52 49 47 45 46 45 44 45 41 39 36 32 31 29 22 17 19 22 23
19 21 23 19 10 14 8 8 4 14 6 11 5 14 21 21 28 40 44 45 48 49 51 51 51 46 50 50 45 45 45 46 44 45 43 40 35 33 35 28 20 19 21 25
13 14 13 19 11 16 9 12 13 9 3 9 20 23 25 28 35 40 45 48 54 52 49 44 46 45 40 38 39 41 43 43 45 45 46 42 37 34 37 32 24 22 21 25
8 7 5 12 7 4 10 6 2 7 18 25 26 24 25 32 40 44 45 47 45 48 42 35 33 34 36 35 36 45 51 44 44 45 44 44 39 37 40 33 27 20 21 18
10 8 8 6 11 9 16 17 18 21 21 23 26 31 34 36 39 43 49 44 41 38 38 37 35 36 42 38 39 39 41 40 42 44 43 43 43 40 37 33 28 21 16 16
18 1 13 17 23 21 20 11 10 15 23 29 32 29 29 29 39 41 43 40 39 41 42 40 42 42 44 43 43 43 43 36 40 40 39 41 43 39 37 36 30 25 24 21
21 17 16 11 11 7 7 11 19 27 32 32 30 34 31 31 38 42 39 37 40 44 44 45 41 42 42 40 42 43 35 32 34 34 34 36 40 40 24 25 23 21 19 19
Wind_Direction_850mb
200 218 219 218 223 265 261 259 254 235 237 252 247 253 245 228 225 232 214 218 335 348 4 1 2 3 342 264 237 232 234 233 229 232 231 229 215 211 209 222 254 239 240 239
181 228 235 232 227 233 233 237 240 255 230 222 225 242 234 222 191 139 187 40 359 346 352 358 356 353 357 341 255 242 236 236 236 233 231 227 227 226 223 213 243 245 242 242
226 150 232 219 209 222 228 236 230 255 163 236 257 240 213 137 145 115 66 40 16 -0 351 355 356 356 350 345 327 262 243 231 235 230 235 234 229 229 226 231 244 247 246 244
236 248 222 217 224 219 237 213 242 225 225 244 196 259 184 163 147 93 49 33 20 13 9 5 4 2 357 344 337 313 251 240 233 232 229 236 231 234 235 239 249 253 248 243
222 226 220 228 236 226 252 224 222 233 242 257 203 252 197 154 166 71 54 49 41 33 30 25 19 13 4 3 356 350 303 246 236 234 228 235 237 240 241 242 247 252 251 245
248 137 263 291 327 246 251 225 236 241 246 237 238 213 238 182 112 107 81 63 53 45 38 36 34 26 21 15 15 9 3 306 269 248 244 235 236 238 233 236 239 231 243 240
201 183 156 313 238 208 219 225 227 221 226 242 239 223 239 87 95 99 95 80 60 46 38 35 33 31 27 25 24 24 20 1 333 276 253 252 242 241 237 230 238 228 229 217
221 184 228 30 264 291 219 242 247 254 246 235 146 218 114 114 118 110 98 77 60 47 47 42 29 24 25 26 28 28 26 23 8 339 283 264 251 245 245 235 225 226 220 209
247 196 141 69 40 267 184 230 352 289 276 279 217 117 147 151 147 150 126 83 56 44 46 28 20 19 21 23 21 23 24 22 20 12 344 295 269 250 242 232 235 220 224 242
51 251 204 118 235 90 295 72 222 229 270 262 259 255 210 174 152 138 119 66 38 26 23 20 18 14 13 12 12 11 14 15 16 16 4 347 318 275 266 255 249 249 247 245
301 267 179 211 211 248 180 196 229 267 229 245 263 259 13 125 100 207 41 14 1 336 335 342 350 356 356 358 355 353 357 6 7 2 360 5 343 320 289 260 250 236 232 218
32 291 263 254 28 285 264 269 278 249 231 239 259 243 131 121 109 66 61 40 31 15 358 345 330 328 329 331 340 350 352 350 354 358 357 357 358 349 324 286 238 221 230 231
156 217 250 213 204 206 245 236 242 257 273 257 243 232 142 131 117 70 32 22 18 8 6 4 356 346 336 334 325 333 338 337 340 346 351 354 355 358 343 301 286 240 235 251
298 275 278 287 2 325 267 237 232 238 244 253 249 224 220 184 276 306 355 352 350 350 356 355 350 345 341 332 326 322 318 322 327 329 335 346 354 352 352 347 319 261 249 243
267 259 250 268 289 279 277 263 235 239 260 269 294 293 266 304 299 269 305 321 326 328 326 331 331 331 331 327 322 316 306 314 315 322 316 325 347 352 349 349 343 327 291 259
211 262 285 276 245 268 272 263 255 260 258 260 264 271 271 65 254 263 282 301 310 315 314 316 319 318 317 318 319 313 311 304 305 311 302 301 316 335 341 342 342 338 326 295
256 263 249 271 172 282 269 262 255 246 241 256 250 12 101 212 263 292 299 304 308 317 317 315 312 309 305 305 305 304 301 301 297 299 296 286 290 303 329 332 332 328 322 317
270 250 274 269 272 273 22 348 289 240 220 221 248 246 305 309 300 291 288 306 319 320 315 312 308 304 303 300 296 294 292 289 289 288 288 277 275 284 301 318 324 335 330 312
224 258 257 252 269 273 280 191 216 203 201 217 258 236 266 312 313 294 58 326 316 312 308 306 303 302 299 296 295 292 287 282 280 278 277 274 268 271 279 288 305 331 336 325
221 232 247 263 238 264 51 83 172 256 257 104 235 145 296 313 292 298 348 322 313 308 306 304 300 297 294 293 292 289 287 282 275 270 270 268 264 259 264 269 285 316 331 324
183 205 223 236 256 289 53 132 142 245 58 117 108 309 302 293 302 304 309 309 309 306 304 303 297 293 292 293 290 286 285 282 280 271 268 268 266 259 253 255 268 298 318 322
186 186 203 224 229 255 117 161 248 70 79 305 300 297 296 293 298 301 304 307 309 308 305 300 296 292 292 293 292 289 287 285 282 278 269 265 264 256 250 247 260 284 304 318
254 257 287 192 220 75 195 281 181 298 300 300 293 285 285 291 294 307 306 309 308 312 309 306 299 293 292 296 296 291 289 284 281 278 272 264 260 253 247 239 249 270 291 310
209 240 243 279 231 280 247 245 255 287 291 300 290 282 288 290 295 302 307 305 310 313 310 306 301 296 297 299 297 302 293 290 281 276 271 262 255 251 246 234 243 250 273 292
291 290 251 268 265 265 256 284 272 289 292 294 293 286 289 292 293 297 301 302 305 308 307 299 295 291 292 296 298 300 299 291 287 275 267 261 249 245 242 229 226 240 262 290
244 249 244 250 14 279 285 318 299 294 295 301 297 296 289 285 293 298 296 299 304 304 303 299 292 288 293 293 298 304 305 290 284 281 273 259 248 235 222 224 248 241 259 283